Flag for Brazil Weather past 2 weeks in Belém, Para, Brazil

Now
77 °F

Clear.


Feels Like: 78 °F
Forecast: 75 / 85 °F
Wind: 6 mph from Northeast

Location: Belem Aeroporto

Current Time: Jan 29, 2015 at 11:44:45 PM

Latest Report: Jan 29, 2015 at 11:00 PM


Visibility: 10 mi

Pressure: 29.89 "Hg

Humidity: 89%

Dew point: 73 °F

Location of BelémLocation

Historic Weather in Belém — Graph

°F

Belém temperature yesterday

Maximum temperature yesterday: 88 °F (at 12:00 PM)
Minimum temperature yesterday: 39 °F (at 5:00 PM)
Average temperature yesterday: 77 °F

Past Weeks' High & Low Weather Summary

 TemperatureHumidityPressure
High90 °F (Jan 22, 1:00 PM)100% (Jan 14, 11:00 PM)29.95 "Hg (Jan 14, 11:00 PM)
Low39 °F (Jan 28, 5:00 PM)55% (Jan 27, 1:00 PM)29.77 "Hg (Jan 20, 4:00 PM)
Average78 °F85%29.87 "Hg
* Reported Jan 14 11:00 PM — Jan 29 11:00 PM, Belém, Weather by CustomWeather, © 2014

Note: Actual official high and low records may vary slightly from our data, if they occured in-between our weather recording intervals... More about our weather records

Advertising

Belém weather history for previous 24 hours

 ConditionsComfort  
Time TempWeatherWind HumidityBarometerVisibility
11:00 PM
Jan 29
77 °FClear.6 mph89%29.89 "Hg10 mi
10:00 PM79 °FPassing clouds.5 mph84%29.86 "HgN/A
9:00 PM79 °FPassing clouds.3 mph84%29.86 "HgN/A
8:00 PM79 °FPassing clouds.3 mph89%29.80 "HgN/A
7:00 PM79 °FPartly cloudy.7 mph89%29.80 "HgN/A
6:00 PM81 °FBroken clouds.7 mph89%29.77 "HgN/A
5:00 PM81 °FLight rain. Partly sunny.7 mph79%N/AN/A
4:00 PM84 °FThunderstorms. Broken clouds.13 mph84%N/A3 mi
3:00 PM84 °FPartly sunny.12 mph79%29.80 "HgN/A
2:00 PM84 °FPartly sunny.12 mph74%29.80 "HgN/A
1:00 PM88 °FPartly sunny.8 mph59%29.83 "HgN/A
12:00 PM88 °FScattered clouds.10 mph62%29.86 "HgN/A
11:00 AM84 °FScattered clouds.12 mph70%29.89 "HgN/A
10:00 AM82 °FScattered clouds.13 mph74%29.89 "HgN/A
9:00 AM82 °FPassing clouds.8 mph79%29.89 "HgN/A
8:00 AM79 °FPassing clouds.5 mph89%29.89 "HgN/A
7:00 AM75 °FSunny.3 mph94%29.86 "Hg10 mi
6:00 AM75 °FClear.2 mph89%29.83 "Hg10 mi
5:00 AM75 °FClear.No wind89%29.83 "Hg10 mi
4:00 AM75 °FClear.No wind89%29.80 "Hg10 mi
3:00 AM75 °FClear.No wind89%29.83 "Hg10 mi
2:00 AM75 °FClear.2 mph89%29.83 "Hg10 mi
1:00 AM75 °FClear.2 mph89%29.86 "Hg10 mi
12:00 AM75 °FPassing clouds.3 mph89%29.86 "HgN/A
11:00 PM
Jan 28
75 °FPassing clouds.3 mph83%29.86 "HgN/A
Weather by CustomWeather, © 2014

See weather overviewHow to use our weather pages